Location: Molino di Ancona
(43.6167°N, 13.3667°E)
Time: 17:10:55
(UTC+00:00)

SJ-12 - Pass Details

Date: 15 December 2019
Orbit: 568 x 586 km, 97.6° (Epoch: 19 January)

Event Time Altitude Azimuth Distance (km) Brightness Sun altitude
Rises 04:42:46 0° 8° (N) 2,808 7.4 -19.0°
Reaches altitude 10° 04:44:58 10° 4° (N) 1,901 6.4 -18.7°
Maximum altitude 04:49:00 56° 287° (WNW) 693 3.9 -18.0°
Drops below altitude 10° 04:52:58 10° 209° (SSW) 1,875 6.4 -17.3°
Sets 04:55:07 0° 205° (SSW) 2,766 7.3 -16.9°
